Content
SEND FEEDBACK

Daily
Averages
Monthly
Summary
United States of America

WINSTON-SALEM, NORTH CAROLINA


Home > North America > United States > North Carolina
Elevation: 965 feet     Latitude: 36 01N     Longitude: 080 13W

WEATHER
 
SELECT A DAY
Number of Records: 186,720;   Date Range: 1/1/95 - 9/16/14
 
SHARE

PRINT THIS DATA

[ ← Previous Day ]
WEATHER ALMANAC - JANUARY 31, 2013
[ Next Day → ]
[ °C ]   °F
Weather ElementAverageHighLow
Temperature42.5 °F54 °F (12:54 am)35.6 °F (11:54 pm)
Dewpoint24.5 °F48 °F (12:54 am)15.1 °F (2:54 pm)
Humidity51.1 %87 % (2:31 am)31 % (2:54 pm)
Barometer29.79 in29.99 in (6:54 pm)29.45 in (12:54 am)
Wind Speed11.5 mph20.7 mph (1:54 pm)
Wind Gust35.7 mph (1:54 pm)
Weather ElementAverage
Visibility10 mi
Wind DirectionWSW (254.6 °)

Weather ElementTotal
Precipitation0.03 in
Heating Degree Days20.2 (Base 65)
Averaged from 26 records on January 31, 2013
WEATHER CONDITIONS BREAKOUT
WIND DIRECTION BREAKOUT
WEATHER BY HOUR - JANUARY 31, 2013
[ °C ]   °F
Local TimeTemperatureDewpointHumidityBarometerVisibilityWind DirectionWind SpeedGust SpeedPrecipitationEventsConditions
12:54 AM54.0 °F48.0 °F80 %29.45 in10.0 miSW (220°)16.1 mph31.1 mph0.02 inRainLight Rain
1:46 AM51.8 °F44.6 °F76 %29.49 in10.0 miSW (230°)17.3 mph28.8 mph0.00 inMostly Cloudy
1:54 AM51.1 °F44.1 °F77 %29.46 in10.0 miSW (220°)13.8 mph31.1 mph0.00 inMostly Cloudy
2:31 AM48.2 °F44.6 °F87 %29.50 in9.0 miSW (230°)12.7 mph25.3 mph0.00 inRainLight Rain
2:54 AM48.0 °F44.1 °F86 %29.51 in10.0 miWSW (240°)9.2 mph19.6 mph0.01 inRainLight Rain
3:54 AM46.9 °F32.0 °F56 %29.55 in10.0 miWest (270°)12.7 mph28.8 mph0.00 inOvercast
4:54 AM44.1 °F28.9 °F55 %29.61 in10.0 miWest (270°)15.0 mph25.3 mphClear
5:54 AM42.1 °F27.0 °F55 %29.66 in10.0 miWest (270°)15.0 mph23.0 mphPartly Cloudy
6:54 AM39.9 °F21.9 °F49 %29.73 in10.0 miWNW (290°)15.0 mph26.5 mphClear
7:54 AM37.9 °F21.0 °F51 %29.79 in10.0 miWest (260°)10.4 mphClear
8:54 AM39.0 °F19.0 °F45 %29.83 in10.0 miWest (270°)12.7 mph23.0 mphClear
9:54 AM39.9 °F19.0 °F43 %29.86 in10.0 miWest (280°)8.1 mph18.4 mphPartly Cloudy
10:54 AM41.0 °F19.9 °F43 %29.88 in10.0 miWest (270°)11.5 mph21.9 mphScattered Clouds
11:54 AM42.1 °F19.0 °F40 %29.88 in10.0 miWest (270°)11.5 mph24.2 mphScattered Clouds
12:54 PM44.1 °F17.1 °F34 %29.87 in10.0 miWest (280°)12.7 mph26.5 mphScattered Clouds
1:54 PM44.1 °F17.1 °F34 %29.88 in10.0 miWest (280°)20.7 mph35.7 mphScattered Clouds
2:54 PM44.1 °F15.1 °F31 %29.90 in10.0 miWNW (290°)17.3 mph33.4 mphPartly Cloudy
3:54 PM43.0 °F16.0 °F34 %29.93 in10.0 miWest (270°)13.8 mph33.4 mphClear
4:54 PM42.1 °F15.1 °F34 %29.95 in10.0 miWest (280°)18.4 mph31.1 mphClear
5:54 PM39.0 °F17.1 °F41 %29.97 in10.0 miWest (270°)9.2 mph19.6 mphClear
6:54 PM37.9 °F17.1 °F43 %29.99 in10.0 miWSW (240°)4.6 mphClear
7:54 PM37.9 °F17.1 °F43 %29.99 in10.0 miSW (230°)3.5 mphClear
8:54 PM37.4 °F17.6 °F45 %29.98 in10.0 miSW (230°)4.6 mphClear
9:54 PM36.0 °F18.0 °F48 %29.99 in10.0 miSW (220°)5.8 mphClear
10:54 PM37.0 °F18.0 °F46 %29.99 in10.0 miSW (230°)3.5 mphClear
11:54 PM35.6 °F19.4 °F52 %29.97 in10.0 miSSW (210°)3.5 mphClear
Hourly data recorded from KINT, located miles away from Winston-Salem, North Carolina







STORIES FROM OUR PARTNERS